When you browse on this site, cookies collect data to enhance your experience and personalize the content and advertising you see.
Visit our Privacy Policy to learn more. By continuing to use the site, you agree to this use of cookies and data.
  • En España
  • Lista de países
  • Para 7 días
  • Temperatura del agua
  • El tiempo en el mapa
  • Informadores
  • user-avatar
    Iniciar sesión

    Tiempo cada hora Podgornyy

    Hoy, 30 Marzo, Lunes

    Tiempo Temperatura Precipitaciones Viento Presión Humedad
    00:00 +7°C° 0 mm 2 mps 729 mmHg 64%
    01:00 +7°C° 0 mm 2 mps 729 mmHg 66%
    02:00 +7°C° 0 mm 2 mps 729 mmHg 65%
    03:00 +7°C° 0 mm 2 mps 729 mmHg 65%
    04:00 +8°C° 0 mm 1 mps 728 mmHg 66%
    05:00 +7°C° 0 mm 1 mps 728 mmHg 66%
    06:00 +8°C° 0 mm 1 mps 728 mmHg 65%
    07:00 +9°C° 0 mm 1 mps 728 mmHg 63%
    08:00 +8°C° 0 mm 2 mps 729 mmHg 62%
    09:00 +9°C° 0 mm 2 mps 729 mmHg 62%
    10:00 +10°C° 0 mm 3 mps 729 mmHg 62%
    11:00 +10°C° 0 mm 4 mps 729 mmHg 62%
    12:00 +10°C° 0 mm 4 mps 729 mmHg 63%
    13:00 +9°C° 0 mm 5 mps 729 mmHg 63%
    14:00 +9°C° 0 mm 5 mps 729 mmHg 64%
    15:00 +8°C° 0 mm 5 mps 729 mmHg 67%
    16:00 +7°C° 0 mm 6 mps 729 mmHg 70%
    17:00 +4°C° 0 mm 6 mps 729 mmHg 72%
    18:00 +3°C° 0 mm 6 mps 729 mmHg 75%
    19:00 +2°C° 0 mm 6 mps 729 mmHg 78%
    20:00 -1°C° 0 mm 6 mps 730 mmHg 81%
    21:00 -1°C° 0.2 mm 6 mps 730 mmHg 85%
    22:00 -1°C° 0.2 mm 5 mps 730 mmHg 89%
    23:00 -2°C° 0.2 mm 5 mps 730 mmHg 93%

    Mañana, 31 Marzo, Martes

    Tiempo Temperatura Precipitaciones Viento Presión Humedad
    00:00 -3°C° 0.1 mm 6 mps 730 mmHg 91%
    01:00 -4°C° 0.1 mm 6 mps 731 mmHg 88%
    02:00 -4°C° 0.1 mm 6 mps 731 mmHg 86%
    03:00 -5°C° 0.2 mm 6 mps 731 mmHg 88%
    04:00 -5°C° 0.2 mm 6 mps 731 mmHg 89%
    05:00 -6°C° 0.2 mm 6 mps 731 mmHg 91%
    06:00 -6°C° 0.3 mm 6 mps 731 mmHg 90%
    07:00 -6°C° 0.3 mm 6 mps 732 mmHg 89%
    08:00 -6°C° 0.3 mm 6 mps 732 mmHg 88%
    09:00 -6°C° 0.2 mm 6 mps 733 mmHg 85%
    10:00 -5°C° 0.2 mm 6 mps 733 mmHg 82%
    11:00 -5°C° 0.2 mm 6 mps 734 mmHg 79%
    12:00 -5°C° 0.1 mm 6 mps 734 mmHg 77%
    13:00 -4°C° 0.1 mm 6 mps 734 mmHg 74%
    14:00 -4°C° 0.1 mm 6 mps 734 mmHg 71%
    15:00 -4°C° 0.1 mm 6 mps 735 mmHg 71%
    16:00 -5°C° 0.1 mm 6 mps 735 mmHg 71%
    17:00 -5°C° 0.1 mm 6 mps 735 mmHg 71%
    18:00 -5°C° 0 mm 5 mps 736 mmHg 72%
    19:00 -6°C° 0 mm 5 mps 736 mmHg 74%
    20:00 -5°C° 0 mm 4 mps 737 mmHg 75%
    21:00 -5°C° 0 mm 4 mps 737 mmHg 73%
    22:00 -7°C° 0 mm 4 mps 737 mmHg 72%
    23:00 -6°C° 0 mm 3 mps 737 mmHg 71%

    Pasado mañana, 1 Abril, Miércoles

    Tiempo Temperatura Precipitaciones Viento Presión Humedad
    00:00 -7°C° 0 mm 4 mps 737 mmHg 71%
    01:00 -7°C° 0 mm 4 mps 737 mmHg 70%
    02:00 -7°C° 0 mm 4 mps 737 mmHg 70%
    03:00 -7°C° 0 mm 4 mps 737 mmHg 70%
    04:00 -7°C° 0 mm 4 mps 737 mmHg 71%
    05:00 -6°C° 0 mm 3 mps 737 mmHg 71%
    06:00 -7°C° 0 mm 4 mps 736 mmHg 64%
    07:00 -5°C° 0 mm 4 mps 736 mmHg 57%
    08:00 -5°C° 0 mm 5 mps 736 mmHg 49%
    09:00 -4°C° 0 mm 5 mps 736 mmHg 46%
    10:00 -3°C° 0 mm 6 mps 735 mmHg 42%
    11:00 -3°C° 0 mm 6 mps 735 mmHg 38%
    12:00 -2°C° 0 mm 7 mps 735 mmHg 39%
    13:00 -1°C° 0 mm 7 mps 734 mmHg 40%
    14:00 -1°C° 0 mm 7 mps 734 mmHg 41%
    15:00 -1°C° 0 mm 7 mps 733 mmHg 47%
    16:00 -1°C° 0 mm 6 mps 733 mmHg 52%
    17:00 -2°C° 0 mm 6 mps 732 mmHg 58%
    18:00 -2°C° 0 mm 6 mps 732 mmHg 62%
    19:00 -2°C° 0 mm 6 mps 732 mmHg 65%
    20:00 -3°C° 0 mm 6 mps 732 mmHg 69%
    21:00 -3°C° 0 mm 6 mps 731 mmHg 69%
    22:00 -3°C° 0 mm 6 mps 731 mmHg 70%
    23:00 -3°C° 0 mm 6 mps 731 mmHg 70%

    2 Abril, Jueves

    Tiempo Temperatura Precipitaciones Viento Presión Humedad
    00:00 -3°C° 0 mm 6 mps 731 mmHg 71%
    01:00 -3°C° 0 mm 6 mps 731 mmHg 73%
    02:00 -3°C° 0 mm 6 mps 731 mmHg 74%
    03:00 -4°C° 0 mm 6 mps 730 mmHg 77%
    04:00 -4°C° 0 mm 6 mps 730 mmHg 80%
    05:00 -4°C° 0 mm 6 mps 730 mmHg 83%
    06:00 -4°C° 0 mm 6 mps 731 mmHg 82%
    07:00 -3°C° 0 mm 6 mps 731 mmHg 80%
    08:00 -2°C° 0 mm 6 mps 731 mmHg 79%
    09:00 -2°C° 0 mm 6 mps 731 mmHg 77%
    10:00 -1°C° 0 mm 6 mps 731 mmHg 75%
    11:00 +1°C° 0 mm 6 mps 731 mmHg 74%
    12:00 +1°C° 0 mm 6 mps 731 mmHg 73%
    13:00 +1°C° 0 mm 6 mps 731 mmHg 72%
    14:00 +1°C° 0 mm 6 mps 731 mmHg 71%
    15:00 +2°C° 0 mm 6 mps 731 mmHg 70%
    16:00 +2°C° 0 mm 5 mps 731 mmHg 70%
    17:00 +3°C° 0 mm 4 mps 731 mmHg 70%
    18:00 +1°C° 0 mm 4 mps 731 mmHg 75%
    19:00 0°C° 0 mm 4 mps 731 mmHg 80%
    20:00 0°C° 0 mm 4 mps 731 mmHg 86%
    21:00 -1°C° 0 mm 4 mps 731 mmHg 87%
    22:00 -1°C° 0 mm 4 mps 731 mmHg 89%
    23:00 -1°C° 0 mm 4 mps 731 mmHg 90%

    3 Abril, Viernes

    Tiempo Temperatura Precipitaciones Viento Presión Humedad
    00:00 -2°C° 0 mm 4 mps 731 mmHg 91%
    01:00 -2°C° 0 mm 4 mps 732 mmHg 92%
    02:00 -2°C° 0 mm 4 mps 732 mmHg 92%
    03:00 -2°C° 0 mm 4 mps 732 mmHg 92%
    04:00 -2°C° 0 mm 4 mps 732 mmHg 91%
    05:00 -2°C° 0 mm 4 mps 732 mmHg 90%
    06:00 -1°C° 0 mm 5 mps 732 mmHg 84%
    07:00 0°C° 0 mm 5 mps 732 mmHg 77%
    08:00 +2°C° 0 mm 6 mps 732 mmHg 70%
    09:00 +3°C° 0 mm 6 mps 732 mmHg 66%
    10:00 +4°C° 0 mm 7 mps 731 mmHg 62%
    11:00 +5°C° 0 mm 8 mps 731 mmHg 58%
    12:00 +5°C° 0 mm 8 mps 731 mmHg 57%
    13:00 +5°C° 0 mm 8 mps 731 mmHg 56%
    14:00 +5°C° 0 mm 8 mps 731 mmHg 55%
    15:00 +5°C° 0 mm 7 mps 730 mmHg 57%
    16:00 +5°C° 0 mm 7 mps 730 mmHg 58%
    17:00 +5°C° 0 mm 6 mps 730 mmHg 59%
    18:00 +5°C° 0 mm 6 mps 730 mmHg 60%
    19:00 +4°C° 0 mm 6 mps 730 mmHg 61%
    20:00 +4°C° 0 mm 6 mps 730 mmHg 63%
    21:00 +3°C° 0 mm 6 mps 730 mmHg 62%
    22:00 +3°C° 0 mm 6 mps 730 mmHg 61%
    23:00 +3°C° 0 mm 6 mps 730 mmHg 61%

    4 Abril, Sábado

    Tiempo Temperatura Precipitaciones Viento Presión Humedad
    00:00 +3°C° 0 mm 6 mps 730 mmHg 64%
    01:00 +2°C° 0 mm 5 mps 730 mmHg 66%
    02:00 +2°C° 0 mm 5 mps 730 mmHg 69%
    03:00 +2°C° 0.2 mm 5 mps 731 mmHg 76%
    04:00 +1°C° 0.2 mm 5 mps 731 mmHg 82%
    05:00 +1°C° 0.2 mm 5 mps 731 mmHg 89%
    06:00 +1°C° 0 mm 5 mps 732 mmHg 84%
    07:00 +2°C° 0 mm 5 mps 733 mmHg 79%
    08:00 +2°C° 0 mm 5 mps 733 mmHg 74%
    09:00 +3°C° 0.1 mm 5 mps 734 mmHg 67%
    10:00 +5°C° 0.1 mm 5 mps 734 mmHg 61%
    11:00 +5°C° 0.1 mm 5 mps 735 mmHg 55%
    12:00 +5°C° 0.1 mm 6 mps 735 mmHg 51%
    13:00 +5°C° 0.1 mm 6 mps 736 mmHg 48%
    14:00 +5°C° 0.1 mm 6 mps 736 mmHg 45%
    15:00 +4°C° 0 mm 6 mps 736 mmHg 47%
    16:00 +3°C° 0 mm 6 mps 737 mmHg 49%
    17:00 +2°C° 0 mm 6 mps 737 mmHg 50%
    18:00 +2°C° 0 mm 5 mps 738 mmHg 53%
    19:00 +2°C° 0 mm 3 mps 739 mmHg 57%
    20:00 +2°C° 0 mm 2 mps 740 mmHg 60%
    21:00 +1°C° 0 mm 2 mps 740 mmHg 62%
    22:00 +1°C° 0 mm 2 mps 741 mmHg 64%
    23:00 -1°C° 0 mm 2 mps 741 mmHg 66%
    Mostrar más